Location: Newark
(48.3453°N, 0.5589°E)
Time: 21:08:17
(UTC+00:00)

S-56A Canister/Altair - All Passes

Search period start: 12 December 2019 00:00
Search period end: 22 December 2019 00:00
Orbit: 633 x 2499 km, 38.9° (Epoch: 11 December)

Date Brightness Start Highest point End Pass type
(mag) Time Alt. Az. Time Alt. Az. Time Alt. Az.
12 Dec - 06:52:41 10° SSE 06:58:49 15° SE 07:05:24 10° E visible
12 Dec - 08:50:12 10° SSW 09:02:07 38° SSE 09:15:09 10° E daylight
12 Dec - 10:53:14 10° WSW 11:07:17 56° S 11:21:04 10° E daylight
12 Dec - 12:58:33 10° W 13:13:04 55° SSW 13:25:32 10° ESE daylight
12 Dec - 15:05:16 10° W 15:17:45 35° SW 15:27:48 10° SSE daylight
12 Dec - 17:16:32 10° WSW 17:20:21 12° SW 17:23:53 10° SW visible
13 Dec - 06:22:11 10° SE 06:25:55 12° ESE 06:29:51 10° ESE visible
13 Dec - 08:17:37 10° SSW 08:28:51 34° SE 08:41:30 10° E daylight
13 Dec - 10:20:06 10° WSW 10:33:46 55° SSE 10:47:48 10° E daylight
13 Dec - 12:25:05 10° W 12:39:35 57° S 12:52:36 10° ESE daylight
13 Dec - 14:31:29 10° W 14:44:35 39° SSW 14:55:22 10° SSE daylight
13 Dec - 16:41:06 10° W 16:47:35 15° SW 16:53:19 10° SSW visible
14 Dec - 07:45:11 10° SSW 07:55:39 31° SE 08:07:45 10° E daylight
14 Dec - 09:47:06 10° SW 10:00:16 53° SSE 10:14:27 10° E daylight
14 Dec - 11:51:42 10° WSW 12:06:04 58° S 12:19:35 10° ESE daylight
14 Dec - 13:57:47 10° W 14:11:20 42° SSW 14:22:49 10° SE daylight
14 Dec - 16:06:25 10° W 16:14:43 18° SW 16:21:57 10° SSW daylight
15 Dec - 07:12:54 10° S 07:22:32 28° SE 07:33:53 10° E daylight
15 Dec - 09:14:11 10° SW 09:26:48 50° SSE 09:40:59 10° E daylight
15 Dec - 11:18:25 10° WSW 11:32:31 59° S 11:46:28 10° ESE daylight
15 Dec - 13:24:11 10° W 13:38:01 45° SSW 13:50:08 10° SE daylight
15 Dec - 15:32:06 10° W 15:41:47 22° SW 15:50:11 10° S daylight
16 Dec - 06:40:46 10° S 06:49:30 24° SE 06:59:52 10° E visible
16 Dec - 08:41:24 10° SW 08:53:25 48° SSE 09:07:27 10° E daylight
16 Dec - 10:45:12 10° WSW 10:58:58 59° S 11:13:14 10° ESE daylight
16 Dec - 12:50:40 10° W 13:04:37 48° SSW 13:17:20 10° SE daylight
16 Dec - 14:58:00 10° W 15:08:45 25° SW 15:18:10 10° S daylight
17 Dec - 06:08:52 10° S 06:16:33 21° SE 06:25:40 10° E visible
17 Dec - 08:08:43 10° SW 08:20:04 45° SSE 08:33:50 10° E daylight
17 Dec - 10:12:07 10° WSW 10:25:25 58° S 10:39:56 10° ESE daylight
17 Dec - 12:17:14 10° W 12:31:11 50° SSW 12:44:26 10° SE daylight
17 Dec - 14:24:04 10° W 14:35:39 28° SW 14:45:56 10° S daylight
18 Dec - 05:37:14 10° SSE 05:43:42 17° SE 05:51:15 10° E visible
18 Dec - 07:36:08 10° SW 07:46:49 42° SSE 08:00:08 10° E daylight
18 Dec - 09:39:06 10° WSW 09:51:55 58° S 10:06:31 10° ESE daylight
18 Dec - 11:43:54 10° W 11:57:42 52° SSW 12:11:25 10° SE daylight
18 Dec - 13:50:17 10° W 14:02:29 31° SW 14:13:33 10° SSE daylight
19 Dec - 05:06:02 10° SSE 05:10:55 14° SE 05:16:27 10° E visible
19 Dec - 07:03:41 10° SSW 07:13:39 38° SSE 07:26:22 10° E visible
19 Dec - 09:06:12 10° WSW 09:18:27 56° S 09:33:01 10° E daylight
19 Dec - 11:10:40 10° W 11:24:12 54° SSW 11:38:17 10° ESE daylight
19 Dec - 13:16:38 10° W 13:29:13 35° SW 13:41:00 10° SSE daylight
19 Dec - 15:27:53 10° WSW 15:32:23 12° SW 15:36:42 10° SW daylight
20 Dec - 04:36:07 10° SE 04:38:13 11° ESE 04:40:25 10° ESE visible
20 Dec - 06:31:20 10° SSW 06:40:34 34° SE 06:52:31 10° E visible
20 Dec - 08:33:23 10° WSW 08:45:01 55° SSE 08:59:27 10° E daylight
20 Dec - 10:37:32 10° W 10:50:41 55° S 11:05:04 10° ESE daylight
20 Dec - 12:43:07 10° W 12:55:54 37° SSW 13:08:19 10° SSE daylight
20 Dec - 14:52:34 10° W 14:59:26 15° SW 15:05:58 10° SSW daylight
21 Dec - 05:59:07 10° SSW 06:07:35 31° SE 06:18:35 10° E visible
21 Dec - 08:00:41 10° WSW 08:11:40 53° SSE 08:25:48 10° E daylight
21 Dec - 10:04:29 10° W 10:17:11 56° S 10:31:43 10° ESE daylight
21 Dec - 12:09:43 10° W 12:22:33 40° SSW 12:35:29 10° SSE daylight
21 Dec - 14:18:01 10° W 14:26:24 18° SW 14:34:25 10° SSW daylight
